KE8ZZR Weather Reports


Display with metric or nautical units.
time (UTC)temp
F
wind
direction
speed
MPH
gust
MPH
rain 1hr
in
rain 24hr
in
rain mn
in
humidity
%
barometer
mb
20260505153104 69 218 2.0 13.0 0.00 0.00 0.00 66 1007.0
20260505151558 68 8 4.0 13.0 0.00 0.00 0.00 66 1007.1
20260505130116 60 304 0.0 1.0 0.00 0.00 0.00 77 1007.0
20260505124617 60 284 2.0 6.0 0.00 0.00 0.00 76 1007.0
20260505123116 60 84 2.0 6.0 0.00 0.00 0.00 77 1006.4
20260505121559 59 304 0.0 4.0 0.00 0.00 0.00 78 1005.9
20260505120103 59 209 1.0 5.0 0.00 0.00 0.00 77 1005.8
20260505114555 60 248 1.0 4.0 0.00 0.00 0.00 76 1006.2
20260505113059 60 271 1.0 8.0 0.00 0.00 0.00 75 1006.4
20260505111556 60 273 1.0 6.0 0.00 0.00 0.00 76 1006.1
20260505101557 60 256 1.0 4.0 0.00 0.00 0.00 75 1005.4
20260505100058 60 291 1.0 7.0 0.00 0.00 0.00 74 1005.4
20260505094556 60 307 1.0 5.0 0.00 0.00 0.00 74 1005.2
20260505093058 60 332 1.0 4.0 0.00 0.00 0.00 73 1005.0
20260505091620 61 0 0.0 3.0 0.00 0.00 0.00 71 1004.9
20260505090124 62 227 1.0 10.0 0.00 0.00 0.00 69 1004.7
20260505084615 62 323 3.0 9.0 0.00 0.00 0.00 70 1004.5
20260505083111 62 310 2.0 7.0 0.00 0.00 0.00 71 1004.5
20260505081606 61 296 2.0 7.0 0.00 0.00 0.00 73 1004.6
20260505074556 60 0 1.0 3.0 0.00 0.00 0.00 76 1004.1
20260505073102 59 269 0.0 1.0 0.00 0.00 0.00 77 1004.0
20260505071615 59 236 0.0 2.0 0.00 0.00 0.00 77 1003.9
20260505070059 58 34 0.0 3.0 0.00 0.00 0.00 78 1004.0
20260505064603 58 0 0.0 1.0 0.00 0.00 0.00 77 1004.2
20260505063100 59 0 0.0 1.0 0.00 0.00 0.00 76 1004.2
20260505061557 59 0 0.0 3.0 0.00 0.00 0.00 76 1004.5
20260505054557 61 0 0.0 2.0 0.00 0.00 0.00 73 1004.8
20260505053059 61 295 0.0 4.0 0.00 0.00 0.00 73 1004.9
20260505051556 61 334 1.0 5.0 0.00 0.00 0.00 73 1004.9
20260505041602 61 191 1.0 4.0 0.00 0.00 0.00 74 1005.2
20260505040059 60 133 1.0 3.0 0.00 0.00 0.00 75 1005.1
20260505034554 60 278 0.0 4.0 0.00 0.00 0.00 74 1005.3
20260505033055 60 0 1.0 4.0 0.00 0.00 0.00 72 1005.5
20260505031554 61 0 0.0 4.0 0.00 0.00 0.00 72 1005.5
20260505030111 61 217 0.0 7.0 0.00 0.00 0.00 71 1005.4
20260505024559 61 0 1.0 3.0 0.00 0.00 0.00 71 1005.4
20260505023055 61 141 1.0 8.0 0.00 0.00 0.00 71 1005.3
20260505021554 61 11 0.0 3.0 0.00 0.00 0.00 71 1005.4
20260505020059 61 62 0.0 2.0 0.00 0.00 0.00 69 1005.5
20260505014609 62 98 0.0 2.0 0.00 0.00 0.00 68 1005.5
20260505013058 63 295 0.0 4.0 0.00 0.00 0.00 66 1005.5
20260505011558 64 281 1.0 6.0 0.00 0.00 0.00 64 1005.4
20260505004555 65 274 1.0 8.0 0.00 0.00 0.00 61 1005.1
20260505003117 66 236 3.0 11.0 0.00 0.00 0.00 60 1004.9
20260505001559 66 284 1.0 5.0 0.00 0.00 0.00 60 1004.6
20260505000107 68 302 0.0 4.0 0.00 0.00 0.00 59 1004.4
20260504234555 70 301 0.0 6.0 0.00 0.00 0.00 55 1004.3
20260504233057 72 326 1.0 3.0 0.00 0.00 0.00 54 1004.2
20260504231556 72 310 2.0 6.0 0.00 0.00 0.00 53 1004.2
20260504230059 72 269 2.0 10.0 0.00 0.00 0.00 55 1004.4
20260504224559 70 299 4.0 11.0 0.00 0.00 0.00 53 1004.6
20260504223117 72 271 2.0 7.0 0.00 0.00 0.00 53 1004.5
20260504221603 71 79 1.0 9.0 0.00 0.00 0.00 58 1004.6
20260504214558 73 281 2.0 7.0 0.00 0.00 0.00 53 1004.8
20260504213106 72 235 3.0 8.0 0.00 0.00 0.00 55 1004.8
20260504211649 71 108 3.0 12.0 0.00 0.00 0.00 53 1004.8
20260504210056 73 245 2.0 7.0 0.00 0.00 0.00 52 1005.0
20260504204603 73 281 3.0 8.0 0.00 0.00 0.00 53 1005.2
20260504203107 73 314 2.0 7.0 0.00 0.00 0.00 54 1005.2
20260504201612 73 210 4.0 11.0 0.00 0.00 0.00 52 1005.2
20260504200100 73 290 2.0 15.0 0.00 0.00 0.00 52 1005.4
20260504194606 73 250 2.0 9.0 0.00 0.00 0.00 54 1005.4
20260504193111 73 257 2.0 15.0 0.00 0.00 0.00 58 1005.8
20260504191612 73 302 3.0 7.0 0.00 0.00 0.00 51 1006.3
20260504190108 72 327 3.0 8.0 0.00 0.00 0.00 53 1006.3
20260504184610 72 319 2.0 7.0 0.00 0.00 0.00 55 1006.4
20260504183109 72 271 3.0 8.0 0.00 0.00 0.00 51 1006.7
20260504181603 72 157 2.0 9.0 0.00 0.00 0.00 55 1006.6
20260504180100 71 229 3.0 7.0 0.00 0.00 0.00 52 1006.7
20260504174556 70 289 2.0 8.0 0.00 0.00 0.00 51 1006.9
20260504173059 70 76 2.0 7.0 0.00 0.00 0.00 51 1007.1
20260504171557 70 86 1.0 6.0 0.00 0.00 0.00 56 1007.1